Location: Burland Observatory
(39.4088°N, 105.4217°W)
Time: 19:37:14
(UTC-07:00)

Vanguard 1 - Visible Passes

Search period start: 15 December 2019 00:00
Search period end: 25 December 2019 00:00
Orbit: 651 x 3832 km, 34.3° (Epoch: 14 December)

Date Brightness Start Highest point End Pass type
(mag) Time Alt. Az. Time Alt. Az. Time Alt. Az.
15 Dec 13.0 02:13:29 53° SSE 02:13:29 53° SSE 02:34:44 10° E visible
15 Dec 12.8 04:26:13 35° WSW 04:39:48 74° S 04:58:58 10° E visible
15 Dec 12.8 06:43:11 10° W 07:06:06 70° SSW 07:20:42 10° ESE visible
16 Dec 13.9 00:20:46 22° E 00:20:46 22° E 00:28:42 10° E visible
16 Dec 12.9 02:33:30 60° SSE 02:34:35 60° SSE 02:56:16 10° E visible
16 Dec 12.8 04:46:14 31° WSW 05:01:24 76° S 05:20:10 10° E visible
17 Dec 13.7 00:40:41 28° E 00:40:41 28° E 00:51:06 10° E visible
17 Dec 12.8 02:53:25 64° S 02:55:54 66° SSE 03:17:44 10° E visible
17 Dec 12.8 05:06:08 26° W 05:23:00 76° S 05:41:19 10° ESE visible
18 Dec 13.5 01:00:33 35° ESE 01:00:33 35° ESE 01:13:08 10° E visible
18 Dec 12.7 03:13:15 64° SSW 03:17:21 71° SSE 03:39:08 10° E visible
18 Dec 12.9 05:25:58 22° W 05:44:33 74° S 06:02:24 10° ESE visible
19 Dec 13.3 01:20:21 42° ESE 01:20:21 42° ESE 01:34:56 10° E visible
19 Dec 12.7 03:33:02 60° SW 03:38:55 75° S 04:00:30 10° E visible
19 Dec 12.9 05:45:46 17° W 06:06:01 71° SSW 06:23:22 10° ESE visible
19 Dec 14.2 23:27:23 11° E 23:27:23 11° E 23:27:45 10° E visible
20 Dec 13.1 01:40:06 50° ESE 01:40:06 50° ESE 01:56:35 10° E visible
20 Dec 12.8 03:52:48 54° WSW 04:00:32 77° S 04:21:50 10° E visible
20 Dec 13.0 06:05:30 13° W 06:27:20 65° SSW 06:44:11 10° SE visible
20 Dec 14.1 23:47:06 15° E 23:47:06 15° E 23:50:17 10° E visible
21 Dec 12.9 01:59:48 59° ESE 01:59:48 59° ESE 02:18:10 10° E visible
21 Dec 12.8 04:12:30 48° WSW 04:22:11 76° S 04:43:06 10° ESE visible
21 Dec 13.0 06:25:46 10° W 06:48:29 59° SSW 07:04:50 10° SE visible
22 Dec 13.9 00:06:47 20° E 00:06:47 20° E 00:12:25 10° E visible
22 Dec 12.8 02:19:30 67° SE 02:19:30 67° SE 02:39:43 10° E visible
22 Dec 12.9 04:32:12 41° W 04:43:48 74° S 05:04:17 10° ESE visible
22 Dec 13.1 06:47:31 10° W 07:09:27 51° SSW 07:25:14 10° SE visible
23 Dec 13.7 00:26:28 26° E 00:26:28 26° E 00:34:19 10° E visible
23 Dec 12.7 02:39:10 74° SSE 02:39:10 74° SSE 03:01:13 10° E visible
23 Dec 12.9 04:51:52 35° W 05:05:19 71° SSW 05:25:21 10° ESE visible
24 Dec 13.6 00:46:08 32° E 00:46:08 32° E 00:56:05 10° E visible
24 Dec 12.6 02:58:50 76° SSW 02:59:35 76° S 03:22:41 10° E visible
24 Dec 13.0 05:11:31 29° W 05:26:44 66° SSW 05:46:14 10° SE visible
